Tracking 20942 objects as of 4-Jul-2020
HD Live streaming from Space Station
objects crossing your sky now

ORBCOMM FM 15

Track ORBCOMM FM 15 now!
10-day predictions
ORBCOMM FM 15 is classified as:


NORAD ID: 25418
Int'l Code: 1998-046F
Perigee: 786.6 km
Apogee: 791.0 km
Inclination: 45.0 °
Period: 100.5 minutes
Semi major axis: 7159 km
RCS: 0.6025 m2 (medium)
Launch date: August 2, 1998
Source: ORBCOMM (ORB)
Launch site: Pegasus launched from Eastern Range Air Space (ERAS)
aabbcc
Your satellite tracking list
Your tracking list is empty




NASA's NSSDC Master Catalog

Two Line Element Set (TLE):
1 25418U 98046F   20185.85484723 -.00000004 +00000-0 +49405-4 0  9995
2 25418 044.9998 070.0222 0003061 286.4615 124.8777 14.33015213144424
Source of the keplerian elements: AFSPC